Coloma, WI (54930)

4:49 AM CDT on June 03, 2015 (GMT -0500)
WIDOT | | Change Station
CLOSE
Current Station
Personal Weather Station
Location: Coloma, WI
Elevation: 960 ft
Nearby Weather Stations

Elev 960 ft 44.00 °N, 89.50 °W | Updated 49 minutes ago

Clear
Clear
42 °F
Feels Like 42 °F
N
1
Wind Variable Wind from NNW
Gusts 1.0 mph

Today
High -- | Low -- °F
--% Chance of Precip.
Yesterday
High -- | Low -- °F
Precip. -- in
5:17 AM 8:36 PM
Full, 99% visible
Pressure 30.05 in
Visibility 10.0 miles
Clouds Clear
Windchill 42 °F
Dew Point 40 °F
Humidity 93%
Rainfall in
Snow Depth Not available.
UV 0 out of 12
Pollen 7.40 out of 12
Air Quality Not available.
Flu Activity Sporadic
METAR KY50 030856Z AUTO 00000KT 10SM CLR 08/08 A3005 RMK AO2

More Conditions Fewer Conditions

Pressure 30.05 in
Visibility 10.0 miles
Clouds Clear
Windchill 42 °F
Dew Point 40 °F
Humidity 93%
Rainfall in
Snow Depth Not available.
UV 0 out of 12
Pollen 7.40 out of 12
Air Quality Not available.
Flu Activity Sporadic
METAR KY50 030856Z AUTO 00000KT 10SM CLR 08/08 A3005 RMK AO2

More Conditions Fewer Conditions

10-Day Weather Forecast

×

Almanac

Astronomy

Jun. 03, 2015 Rise Set
Actual Time
Civil Twilight
Nautical Twilight
Astronomical Twilight
Moon
Length of Visible Light
Length of Day
Tomorrow will be .
, % of the Moon is Illuminated

Today's Extremes

State Highs State Lows

Community

WunderPhotos

Upload Photos

1,826,197 photos uploaded!

WunderBlogs® & News

Nearby

Air Quality

  Air Quality AQ Index Pollutant
Not available.

Snow Depth

Station Depth Elevation

Earthquake Activity

City Distance Mag. Time & Date
Minimum magnitude displayed is 2.5.

Coastal Water Temperatures

Place Temperature

Stations

Nearby Weather Stations

Station Location Temp. Windchill Dew Point Humidity Wind Precip. Elev Updated Type